Date String (YYYY-MM-DD hh:mm:ss) UTC,Instrument flags,absolute air pressure of the measurement (hPa),sample flow rate (lpm),inlet stack bypass flow (lpm),air temperature of the measurement (°C),ambient temperature measured by the external sensor (°C),aerosol sample conditioner tube jacket temperature (°C),OPC LED temperature (°C),internal box temperature (°C),relative humidity of the measurement (%),span deviation,mass concentration of particles derived from Lorenz-Mie calculation of OPC scattering (μg/m³),mass concentration of particles derived from Lorenz-Mie calculation of OPC scattering (μg/m³),mass concentration of particles derived from Lorenz-Mie calculation of OPC scattering (μg/m³)
DateTimeUTC,F1_M11,P_M11,Q1_M11,Q2_M11,T1_M11,T2_M11,T3_M11,T4_M11,T5_M11,U1_M11,ZSPAN_M11,X2_M11,X0_M11,X1_M11
2023-11-03 19:00:00,SystemResetWarning,0831.4,5.00,000.00,028.5,027.4,000.0,036.8,030.1,12.0,0000.0,0001.23,0003.91,0000.91
2023-11-03 19:01:00,SystemResetWarning,0831.3,4.99,000.00,028.5,025.7,000.0,036.7,029.9,11.9,0000.0,0001.22,0005.77,0000.90
2023-11-03 19:02:00,SystemResetWarning,0831.3,5.01,000.00,028.4,024.2,000.0,036.7,029.6,12.1,0000.0,0001.20,0005.71,0000.89
2023-11-03 19:03:00,SystemResetWarning,0831.3,5.01,000.00,028.3,024.3,000.0,036.6,029.4,11.9,0000.0,0001.18,0005.71,0000.89
2023-11-03 19:04:00,SystemResetWarning,0831.2,4.99,000.00,028.1,024.7,000.0,036.6,029.1,12.2,0000.0,0001.21,0005.85,0000.89
2023-11-03 19:05:00,SystemResetWarning,0831.2,5.00,000.00,028.1,025.1,000.0,036.5,029.1,12.3,0000.0,0001.23,0005.92,0000.90
2023-11-03 19:06:00,SystemResetWarning,0831.2,5.00,000.00,028.0,025.5,000.0,036.5,029.2,12.3,0000.0,0001.22,0005.94,0000.90
2023-11-03 19:07:00,SystemResetWarning,0831.2,4.99,000.00,028.0,025.8,000.0,036.5,029.3,12.3,0000.0,0001.19,0005.89,0000.90
2023-11-03 19:08:00,SystemResetWarning,0831.2,4.99,000.00,028.0,026.1,000.0,036.4,029.4,12.3,0000.0,0001.23,0005.97,0000.90
2023-11-03 19:09:00,SystemResetWarning,0831.3,5.01,000.00,028.0,026.4,000.0,036.4,029.4,12.2,0000.0,0001.22,0005.92,0000.90
2023-11-03 19:10:00,SystemResetWarning,0831.3,5.01,000.00,028.0,026.6,000.0,036.4,029.5,12.0,0000.0,0001.21,0005.88,0000.89
2023-11-03 19:11:00,SystemResetWarning,0831.3,4.99,000.00,028.1,026.7,000.0,036.4,029.5,12.2,0000.0,0001.20,0005.18,0000.89
2023-11-03 19:12:00,SystemResetWarning,0831.3,4.99,000.00,028.1,026.9,000.0,036.4,029.6,12.2,0000.0,0001.19,0002.28,0000.89
2023-11-03 19:13:00,SystemResetWarning,0831.3,5.01,000.00,028.1,027.0,000.0,036.4,029.7,12.1,0000.0,0001.19,0002.28,0000.88
2023-11-03 19:14:00,SystemResetWarning,0831.3,5.01,000.00,028.2,027.1,000.0,036.4,029.7,12.1,0000.0,0001.21,0002.45,0000.87
2023-11-03 19:15:00,SystemResetWarning,0831.3,5.00,000.00,028.2,027.2,000.0,036.5,029.8,12.0,0000.0,0001.17,0002.33,0000.87
2023-11-03 19:16:00,SystemResetWarning,0831.2,4.99,000.00,028.2,027.3,000.0,036.5,029.8,12.1,0000.0,0001.15,0002.17,0000.86
2023-11-03 19:17:00,SystemResetWarning,0831.2,5.00,000.00,028.3,027.4,000.0,036.5,029.8,12.2,0000.0,0001.13,0002.36,0000.85
2023-11-03 19:18:00,SystemResetWarning,0831.1,5.00,000.00,028.3,027.4,000.0,036.5,029.8,12.0,0000.0,0001.12,0003.16,0000.85
2023-11-03 19:19:00,SystemResetWarning,0831.2,5.01,000.00,028.3,027.5,000.0,036.5,029.9,11.8,0000.0,0001.07,0003.03,0000.85
2023-11-03 19:20:00,SystemResetWarning,0831.1,5.00,000.00,028.4,027.5,000.0,036.6,029.9,11.8,0000.0,0001.05,0003.36,0000.84
2023-11-03 19:21:00,SystemResetWarning,0831.1,5.01,000.00,028.4,027.6,000.0,036.6,030.0,12.0,0000.0,0001.09,0004.77,0000.85
2023-11-03 19:22:00,SystemResetWarning,0831.1,5.00,000.00,028.4,027.6,000.0,036.6,030.0,11.9,0000.0,0001.09,0004.69,0000.86
2023-11-03 19:23:00,SystemResetWarning,0831.1,5.00,000.00,028.5,027.6,000.0,036.6,030.0,11.7,0000.0,0001.09,0004.69,0000.87
2023-11-03 19:24:00,SystemResetWarning,0831.1,5.00,000.00,028.5,027.5,000.0,036.7,030.1,11.8,0000.0,0001.12,0004.89,0000.88
2023-11-03 19:25:00,SystemResetWarning,0831.0,4.98,000.00,028.5,025.8,000.0,036.6,029.9,11.7,0000.0,0001.10,0006.28,0000.88
2023-11-03 19:26:00,SystemResetWarning,0831.0,5.01,000.00,028.4,025.1,000.0,036.6,029.8,11.7,0000.0,0001.09,0006.21,0000.89
2023-11-03 19:27:00,SystemResetWarning,0831.0,5.01,000.00,028.3,025.2,000.0,036.6,029.5,11.7,0000.0,0001.07,0006.17,0000.88
2023-11-03 19:28:00,SystemResetWarning,0831.0,4.99,000.00,028.2,025.6,000.0,036.5,029.4,12.0,0000.0,0001.09,0006.18,0000.89
2023-11-03 19:29:00,SystemResetWarning,0830.9,5.00,000.00,028.2,025.9,000.0,036.5,029.4,11.8,0000.0,0001.11,0005.13,0000.89
2023-11-03 19:30:00,SystemResetWarning,0830.9,5.02,000.00,028.2,026.2,000.0,036.5,029.4,11.9,0000.0,0001.15,0005.31,0000.89
2023-11-03 19:31:00,SystemResetWarning,0830.9,5.00,000.00,028.2,026.4,000.0,036.5,029.5,11.9,0000.0,0001.17,0005.05,0000.90
2023-11-03 19:32:00,SystemResetWarning,0830.8,4.99,000.00,028.2,026.6,000.0,036.5,029.6,12.0,0000.0,0001.17,0003.83,0000.90
2023-11-03 19:33:00,SystemResetWarning,0830.9,4.99,000.00,028.2,026.8,000.0,036.5,029.6,11.9,0000.0,0001.18,0003.36,0000.90
2023-11-03 19:34:00,SystemResetWarning,0830.9,5.01,000.00,028.2,027.0,000.0,036.5,029.7,11.9,0000.0,0001.17,0003.34,0000.90
2023-11-03 19:35:00,SystemResetWarning,0831.0,5.01,000.00,028.2,027.1,000.0,036.5,029.7,11.8,0000.0,0001.14,0003.21,0000.89
2023-11-03 19:36:00,SystemResetWarning,0830.9,4.99,000.00,028.3,027.2,000.0,036.5,029.8,11.9,0000.0,0001.20,0001.86,0000.89
2023-11-03 19:37:00,SystemResetWarning,0830.9,4.99,000.00,028.3,027.3,000.0,036.5,029.8,12.0,0000.0,0001.27,0003.05,0000.90
2023-11-03 19:38:00,SystemResetWarning,0830.9,5.00,000.00,028.3,027.3,000.0,036.6,029.9,11.8,0000.0,0001.30,0003.89,0000.90
2023-11-03 19:39:00,SystemResetWarning,0830.8,5.01,000.00,028.4,027.4,000.0,036.6,029.9,11.8,0000.0,0001.31,0003.94,0000.89
2023-11-03 19:40:00,SystemResetWarning,0830.9,5.01,000.00,028.4,027.5,000.0,036.6,029.9,11.7,0000.0,0001.29,0003.92,0000.89
2023-11-03 19:41:00,SystemResetWarning,0830.9,5.00,000.00,028.4,027.5,000.0,036.6,030.0,11.9,0000.0,0001.29,0003.89,0000.88
2023-11-03 19:42:00,SystemResetWarning,0830.9,4.99,000.00,028.5,027.6,000.0,036.6,030.0,11.8,0000.0,0001.28,0003.86,0000.88
2023-11-03 19:43:00,SystemResetWarning,0830.9,4.99,000.00,028.5,027.5,000.0,036.7,030.0,11.9,0000.0,0001.28,0003.90,0000.88
2023-11-03 19:44:00,SystemResetWarning,0830.9,5.00,000.00,028.5,026.1,000.0,036.6,029.9,11.9,0000.0,0001.27,0003.96,0000.88
2023-11-03 19:45:00,SystemResetWarning,0830.8,5.00,000.00,028.4,025.0,000.0,036.6,029.8,12.1,0000.0,0001.27,0003.96,0000.89
2023-11-03 19:46:00,SystemResetWarning,0830.8,5.02,000.00,028.3,025.1,000.0,036.6,029.5,12.1,0000.0,0001.28,0003.97,0000.90
2023-11-03 19:47:00,SystemResetWarning,0830.8,5.00,000.00,028.2,025.4,000.0,036.5,029.3,12.3,0000.0,0001.23,0003.86,0000.90
2023-11-03 19:48:00,SystemResetWarning,0830.8,4.98,000.00,028.2,025.8,000.0,036.5,029.3,12.2,0000.0,0001.16,0003.07,0000.89
2023-11-03 19:49:00,SystemResetWarning,0830.8,5.01,000.00,028.1,026.1,000.0,036.5,029.4,12.2,0000.0,0001.17,0001.93,0000.89
2023-11-03 19:50:00,SystemResetWarning,0830.8,5.01,000.00,028.2,026.4,000.0,036.5,029.5,12.1,0000.0,0001.17,0001.93,0000.90
2023-11-03 19:51:00,SystemResetWarning,0830.8,4.99,000.00,028.2,026.6,000.0,036.5,029.5,12.1,0000.0,0001.17,0001.91,0000.91
2023-11-03 19:52:00,SystemResetWarning,0830.8,5.00,000.00,028.2,026.8,000.0,036.5,029.6,12.1,0000.0,0001.18,0001.86,0000.91
2023-11-03 19:53:00,SystemResetWarning,0830.8,5.01,000.00,028.2,026.9,000.0,036.5,029.7,12.0,0000.0,0001.18,0001.84,0000.92
2023-11-03 19:54:00,SystemResetWarning,0830.8,5.00,000.00,028.2,027.1,000.0,036.5,029.7,12.0,0000.0,0001.16,0001.81,0000.92
2023-11-03 19:55:00,SystemResetWarning,0830.8,5.00,000.00,028.3,027.2,000.0,036.5,029.8,12.1,0000.0,0001.14,0001.70,0000.91
2023-11-03 19:56:00,SystemResetWarning,0830.8,5.00,000.00,028.3,027.3,000.0,036.5,029.8,12.1,0000.0,0001.15,0001.71,0000.89
2023-11-03 19:57:00,SystemResetWarning,0830.7,5.00,000.00,028.3,027.3,000.0,036.5,029.8,12.0,0000.0,0001.15,0001.72,0000.88
2023-11-03 19:58:00,SystemResetWarning,0830.7,5.00,000.00,028.4,027.4,000.0,036.6,029.9,11.9,0000.0,0001.16,0001.73,0000.88
2023-11-03 19:59:00,SystemResetWarning,0830.7,5.00,000.00,028.4,027.5,000.0,036.6,029.9,11.8,0000.0,0001.16,0001.87,0000.88
